Simultaneous Nadir Overpasses (SNOs) Predictions

Prediction of SNOs between AQUA and METOP-C Satellite Orbit:

Table of predicted SNOs for the next 14.0 days since TLE Epoch: 3/2/2024
Index Date (AQUA) Time (AQUA) Lat,Lon (AQUA) SZA (AQUA ) Date (METOP-C) Time (METOP-C) Lat,Lon (METOP-C) SZA (METOP-C ) Distance(km) Time Diff (sec)
1 03/03/2024 03:45:17 75.18, 121.16 81.82 03/03/2024 03:44:44 75.16, 121.25 81.81 2.90 33
2 03/03/2024 04:34:40 -75.23, -71.32 98.15 03/03/2024 04:35:25 -75.24, -71.21 98.14 3.53 45
3 03/05/2024 19:56:57 75.16,-121.68 80.76 03/05/2024 19:56:23 75.18,-121.62 80.78 2.60 34
4 03/05/2024 20:46:20 -75.21, 45.85 99.21 03/05/2024 20:47:05 -75.21, 45.79 99.21 1.78 45
5 03/08/2024 12:08:36 75.15, -4.53 79.71 03/08/2024 12:08:03 75.14, -4.65 79.70 3.79 33
6 03/08/2024 12:58:00 -75.25, 162.88 100.21 03/08/2024 12:58:44 -75.22, 162.91 100.24 2.78 44
7 03/11/2024 04:20:15 75.20, 112.47 78.71 03/11/2024 04:19:41 75.19, 112.58 78.70 3.62 34
8 03/11/2024 05:09:38 -75.24, -79.97 101.27 03/11/2024 05:10:23 -75.22, -79.99 101.29 1.90 45
9 03/13/2024 20:31:50 75.16,-130.28 77.61 03/13/2024 20:31:19 75.18,-130.35 77.63 3.10 31
10 03/13/2024 21:21:14 -75.24, 37.15 102.32 03/13/2024 21:22:00 -75.27, 37.22 102.31 3.08 46



Historial Predications of SNOs between AQUA and METOP-C
